Hourly Data Report for October 16, 2016

All times are specified in Local Standard Time (LST). Add 1 hour to adjust for Daylight Saving Time where and when it is observed.

IQALUIT CLIMATE
NUNAVUT

63°44'50.000" N
68°32'40.000" W
33.50 m
2402592
71321
XFB

Download Data

Hourly Data (October 2016)
Hourly Data Report for October 16, 2016
Temp Definition
°C
Dew Point Temp Definition
°C
Rel Hum Definition
%
Wind Dir Definition
10's deg

Wind Spd Definition
km/h
Visibility Definition
km
Stn Press Definition
kPa
Hmdx Definition


Wind Chill Definition


Weather Definition


TIME
00:00 -4.6 -6.2 89 34 9   101.19   -8 LegendNANA
01:00 -4.4 -8.2 75 35 12   101.20   -9 LegendNANA
02:00 -4.8 -6.8 86 33 10   101.20   -9 LegendNANA
03:00 -5.4 -7.2 87 33 13   101.19   -11 LegendNANA
04:00 -5.1 -7.2 86 32 9   101.22   -9 LegendNANA
05:00 -5.4 -8.6 78 35 9   101.25   -9 LegendNANA
06:00 -6.9 -10.5 75 5 23   101.25   -14 LegendNANA
07:00 -7.4 -11.4 73 3 28   101.25   -16 LegendNANA
08:00 -9.0 -12.5 76 33 15   101.27   -16 LegendNANA
09:00 -8.4 -12.1 75 34 16   101.27   -15 LegendNANA
10:00 -8.2 -11.8 75 31 15   101.29   -15 LegendNANA
11:00 -7.5 -11.3 74 31 12   101.29   -13 LegendNANA
12:00 -7.9 -12.0 73 36 14   101.29   -14 LegendNANA
13:00 -7.9 -11.5 75 32 15   101.28   -14 LegendNANA
14:00 -7.9 -11.4 76 33 19   101.33   -15 LegendNANA
15:00 -8.9 -11.7 80 33 24   101.38   -17 LegendNANA
16:00 -9.8 -12.2 82 33 24   101.44   -18 LegendNANA
17:00 -10.6 -12.9 83 32 26   101.50   -20 LegendNANA
18:00 -11.1 -13.8 80 32 22   101.55   -20 LegendNANA
19:00 -11.3 -14.1 80 33 22   101.60   -20 LegendNANA
20:00 -11.5 -14.5 78 32 20   101.65   -20 LegendNANA
21:00 -11.7 -14.5 79 32 24   101.66   -21 LegendNANA
22:00 -11.9 -14.6 80 32 23   101.69   -21 LegendNANA
23:00 -11.6 -14.3 80 32 21   101.71   -20 LegendNANA

Notes on Data Quality.

Legend

  • E = Estimated
  • M = Missing
  • NA = Not Available
  • ‡ = Partner data that is not subject to review by the National Climate Archives
Date modified: